C/2020 H5 ( Robinson )

Japanese version
Home page
Updated on May 24, 2020

---------------------------------------------------------------------

* Profile

Discovery Date April 22, 2020
Magnitude 19.1 mag
Discoverer James E. Robinson (Asteroid Terrestrial-Impact Last Alert System (ATLAS) search program)

* Orbital Elements

Epoch 2020 May 31.0 TT = JDT 2459000.5
T 2020 June 14.96882 TT                                 Rudenko
q   9.3970685            (2000.0)            P               Q
z  +0.0064675      Peri.  317.55930     -0.75199113     -0.44893166
 +/-0.0000000      Node   210.91810     +0.08638040     -0.79303349
e   0.9392243      Incl.   69.94912     -0.65348892     +0.41177451
From 46 observations 2020 Apr. 22-May 2, mean residual 0".5.

* Magnitudes Graph

        m1 = 4.0 + 5 log d + 10.0 log r

---------------------------------------------------------------------

The orbital elements are published on M.P.E.C. 2020-K117.
The magnitudes graphs are made with Comet for Windows.

---------------------------------------------------------------------

Copyright(C) Seiichi Yoshida (comet@aerith.net). All rights reserved.